Regional Weather Roundup
Issued by NWS

Home | Current Version | Previous Version | Graphics & Text | Print | Product List | Glossary Off
Versions: 1 2 3 4 5 6 7 8 9 10 11 12 13 14 15 16 17 18 19 20 21 22 23 24 25 26 27 28 29 30 31 32 33 34 35 36 37 38 39 40 41 42 43 44 45 46 47 48 49 50

000
ASUS43 KMKX 230211
RWRWI

WISCONSIN REGIONAL WEATHER ROUNDUP
NATIONAL WEATHER SERVICE MILWAUKEE/SULLIVAN WI
900 PM CDT TUE APR 22 2014

NOTE: "FAIR" INDICATES FEW OR NO CLOUDS BELOW 12,000 FEET WITH NO
SIGNIFICANT WEATHER AND/OR OBSTRUCTIONS TO VISIBILITY.

WIZ001-002-006>008-014>016-023>028-230300-
NORTHWEST WISCONSIN

CITY           SKY/WX    TMP DP  RH WIND       PRES   REMARKS
SUPERIOR ARPT  CLEAR     40  24  52 N3        30.07R
ASHLAND        CLEAR     36  24  62 CALM      30.09R
HAYWARD        CLEAR     36  23  59 CALM      30.07R
SIREN          CLEAR     41  24  50 CALM      30.08R
RICE LAKE      CLEAR     43  25  48 CALM      30.09R
LADYSMITH      CLEAR     43  25  49 NE5       30.08R
EAU CLAIRE     CLEAR     45  23  42 NE3       30.07R
MENOMONIE      CLEAR     47  25  41 CALM      30.07R
NEW RICHMOND   CLEAR     43  30  59 CALM      30.08R
OSCEOLA        PTCLDY    45  25  46 CALM      30.10R
$$

WIZ003>005-009-010-017-018-230300-
NORTH CENTRAL WISCONSIN

CITY           SKY/WX    TMP DP  RH WIND       PRES   REMARKS
WOODRUFF       CLEAR     32  17  53 CALM      30.07R
RHINELANDER    CLEAR     34  23  64 CALM      30.07R
EAGLE RIVER    CLEAR     31  23  71 CALM      30.06R
LAND O LAKES   CLEAR     30  26  83 CALM      30.07R
PHILLIPS       CLEAR     38  24  57 CALM      30.06R
TOMAHAWK       CLEAR     37  24  60 CALM      30.07R
MEDFORD        CLEAR     40  26  59 NE5       30.08R
MERRILL        CLEAR     38  24  57 N3        30.07R
$$

WIZ029-030-035-036-043>047-230300-
CENTRAL WISCONSIN

CITY           SKY/WX    TMP DP  RH WIND       PRES   REMARKS
WAUSAU         CLEAR     42  25  50 NE5       30.05R
MOSINEE        CLEAR     43  25  49 N6        30.07R
MARSHFIELD     CLEAR     44  25  47 NE6       30.06R
STEVENS POINT  CLEAR     40  24  52 N5        30.07R
WAUPACA        CLEAR     45  27  49 N7        30.07R
WAUTOMA        CLEAR     46  25  44 N7        30.06R
WISC RAPIDS    CLEAR     45  25  45 NE9       30.07R
CAMP DOUGLAS   PTCLDY    46  25  42 N5        30.06R
$$

WIZ011>013-019>022-031-037>040-048>050-230300-
NORTHEAST WISCONSIN

CITY           SKY/WX    TMP DP  RH WIND       PRES   REMARKS
ANTIGO         CLEAR     35  28  74 NW3       30.07R
STURGEON BAY   MOCLDY    36  27  69 N14       30.07R WCI  27
GREEN BAY      CLEAR     39  28  64 N10       30.07R WCI  32
MANITOWOC      CLEAR     41  29  62 N9        30.06R
APPLETON       PTCLDY    43  27  52 N10       30.06R
CLINTONVILLE   CLEAR     43  27  52 N6        30.07R
OSHKOSH        CLEAR     45  26  47 NE9       30.05R
$$

WIZ032>034-041-042-053>061-230300-
SOUTHWEST WISCONSIN

CITY           SKY/WX    TMP DP  RH WIND       PRES   REMARKS
LA CROSSE      CLEAR     50  27  40 N3        30.05R
SPARTA         CLEAR     44  23  42 NE6       30.07R
VIROQUA        FAIR      46  25  43 N3        30.05R
BOSCOBEL       CLEAR     48  24  39 SE3       30.05R
PRAIRIE DU CHI CLEAR     49  28  42 CALM      30.04R
PLATTEVILLE    FAIR      44  28  52 N6        30.04R
$$

WIZ056-057-062-063-064-067-068-230300-
SOUTH CENTRAL WISCONSIN

CITY           SKY/WX    TMP DP  RH WIND       PRES   REMARKS
BARABOO/DELLS  CLEAR     46  24  40 N3        30.05R
LONE ROCK      CLEAR     51  25  36 N8        30.05R
WATERTOWN      CLEAR     43  28  56 NE5       30.04R
MADISON        PTCLDY    46  26  45 N7        30.04R
MIDDLETON      FAIR      43  28  56 N5        30.05R
MONROE         CLEAR     47  25  41 N8        30.03R
JANESVILLE     CLEAR     52  19  28 N5        30.02R
$$

WIZ051-052-058>065-066-070>072-230300-
SOUTHEAST WISCONSIN

CITY           SKY/WX    TMP DP  RH WIND       PRES   REMARKS
MILWAUKEE      PTCLDY    40  29  64 N9        30.06R WCI  34
WAUKESHA       CLEAR     37  28  70 E3        30.05R
MILWAUKEE/TIMM NOT AVBL
RACINE         CLEAR     39  29  67 NE8       30.07R WCI  33
BURLINGTON     CLEAR     38  29  70 E7        30.05R WCI  33
KENOSHA        CLEAR     37  28  70 E3        30.06R
FOND DU LAC    CLEAR     44  30  57 N14       30.06R
SHEBOYGAN      CLEAR     42  28  57 N9        30.05R
WEST BEND      CLEAR     43  27  52 N3        30.05R
JUNEAU         CLEAR     44  26  48 N6        30.05R
$$

LSZ147-162-230300-
LAKE SUPERIOR

STATION/POSITION TIME  TEMP    WIND        PRES    WAVE
                       AIR SEA DIR/SP/G            HT/PER
                 (UTC) (F)     (DEG/KT/KT) (MB)    (FT/S)
DEVILS ISLAND    0200   38     130/  9/  9 1019.9R
PORT WING        0100   41      70/  2/  3 1018.3S
SAXON HARBOR     0140           CALM  /  2 1018.6R
$$

LMZ867-665-643>646-230300-
LAKE MICHIGAN

STATION/POSITION TIME  TEMP    WIND        PRES    WAVE
                       AIR SEA DIR/SP/G            HT/PER
                 (UTC) (F)     (DEG/KT/KT) (MB)    (FT/S)
NORTHPORT PIER   0100   34     340/ 15/ 18 1017.6R
SISTER BAY       0109   36     360/ 18/ 24   N/A
KEWAUNEE LAKESHO 0100   42     350/  6/ 11 1018.0R
SHEBOYGAN LAKESH 0200   42      20/ 13/ 14 1018.5R
PORT WASHINGTON  0100   43      20/  5/ 10 1017.3
MILWAUKEE LAKESH 0100   40      20/ 11/ 13   N/A
KENOSHA   LAKESH 0200   41      40/  5/  7   N/A
$$

TC  - TEMPERATURE IN CELSIUS
VSB - VISIBILITY IN STATUTE MILES
WCI - WIND CHILL INDEX
HX  - HEAT INDEX




USA.gov is the U.S. government's official web portal to all federal, state and local government web resources and services.